SAUDISAT 5A

Last updated on Mon Oct 14 2024 00:02:25 GMT+0000 (Coordinated Universal Time)

1 43831U 18102A 24287.51670104 .00011207 00000+0 54765-3 0 9998 2 43831 97.3952 350.3914 0013212 123.7766 236.4729 15.18328412322535
UTC large
Height (km)
Speed (km/s)
/
Latitude / Longitude
Inclination (degrees)
Orbital Period (minutes)
Azimuth
Elevation
Range (km)
Doppler Factor

Next 0 passes for location: London (51.5072 / 0.1276)

Sorry there are no passes over London.